[[{"header":{"parameterUnit":"m.s-1","parameterCategory":1,"la1":30.2992,"la2":30.254,"lo1":-89.0895,"lo2":-89.0443,"dy":0.0025,"dx":0.0025,"nx":19,"ny":19,"refTime":"2026-03-28T09:00:00:Z","depth":0,"parameterNumber":2,"parameterNumberName":"U-component_of_WINDS"},"data":[0,0,0,-4.5046,-4.5054,-4.5431,-4.5433,-4.5928,-4.5933,0,0,0,0,0,0,0,0,0,0,0,-4.4939,-4.4943,-4.5045,-4.5055,-4.5431,-4.5433,-4.5928,-4.5933,0,0,0,0,0,0,0,0,0,0,0,-4.4938,-4.4942,-4.4946,-4.5056,-4.5431,-4.5433,-4.5926,-4.5638,0,0,0,0,0,0,0,0,0,0,-4.527,-4.5175,-4.4941,-4.4946,-4.5059,-4.543,-4.5433,-4.5624,-4.5656,-4.5763,0,-4.5855,0,-4.5902,-4.5967,-4.5968,0,0,0,-4.5052,-4.5149,-4.5246,-4.4947,-4.5062,-4.543,-4.5261,-4.5642,-4.5678,-4.5805,-4.5862,-4.588,-4.591,-4.597,-4.5972,-4.6586,-4.6589,0,0,-4.5032,-4.5011,-4.522,-4.5269,-4.5208,-4.5249,-4.5272,-4.5664,-4.5726,-4.5864,-4.5892,-4.5918,-4.5973,-4.5977,-4.6583,-4.6587,0,0,0,-4.4974,-4.4996,-4.5083,-4.5249,-4.5316,-4.526,-4.5287,-4.5708,-4.5738,-4.5897,-4.5924,-4.5976,-4.5982,-4.658,-4.6585,-4.6711,0,0,0,-4.4961,-4.4962,-4.5074,-4.5065,-4.5309,-4.5516,-4.5323,-4.5711,-4.5756,-4.5921,-4.5976,-4.5987,-4.6577,-4.6583,-4.67,-4.6775,0,0,0,-4.4913,-4.4956,-4.5012,-4.5063,-4.5224,-4.551,-4.5563,-4.5721,-4.5773,-4.5969,-4.5989,-4.6575,-4.6582,-4.6691,-4.6759,-4.6931,0,0,0,-4.4857,-4.512,-4.5014,-4.5319,-4.5221,-4.5584,-4.556,-4.5833,-4.6016,-4.5979,-4.6577,-4.6584,-4.6688,-4.675,-4.692,-4.7071,-4.7131,0,0,-4.5178,-4.5158,-4.534,-4.5255,-4.5631,-4.5528,-4.5926,-4.6115,-4.6154,-4.6441,-4.6456,-4.6704,-4.6758,-4.6928,-4.7475,-4.7523,0,0,0,-4.5434,-4.5564,-4.5669,-4.584,-4.5989,-4.6124,-4.6253,-4.6324,-4.6568,-4.6296,-4.6812,-4.6846,-4.6946,-4.7019,-4.706,-4.7148,-4.6617,-4.6616,-4.6615,-4.5859,-4.5893,-4.6196,-4.6276,-4.6443,-4.6574,-4.6714,-4.6832,-4.6819,-4.6941,-4.7027,-4.7354,-4.7438,-4.7469,-4.7561,-4.7108,-4.7109,-4.7109,-4.711,-4.6333,-4.6523,-4.6498,-4.6783,-4.6819,-4.706,-4.7198,-4.7181,-4.7413,-4.7292,-4.7383,-4.7248,-4.752,-4.7602,-4.7119,-4.7118,-4.7117,-4.7116,-4.7115,-4.6615,-4.6712,-4.6791,-4.7043,-4.7235,-4.7308,-4.7531,-4.7557,-4.7583,-4.7672,-4.7766,-4.7764,-4.7766,-4.7715,-4.7716,-4.7717,-4.7718,-4.7719,-4.772,-4.6877,-4.6962,-4.7145,-4.7325,-4.7439,-4.7593,-4.7728,-4.7843,-4.7976,-4.7978,-4.7979,-4.7955,-4.7539,-4.7435,-4.7738,-4.7734,-4.7732,-4.773,-4.7729,-4.7346,-4.7244,-4.7526,-4.764,-4.7855,-4.8044,-4.8073,-4.8304,-4.8403,-4.8513,-4.8471,-4.8158,-4.8141,-4.8109,-4.8023,-4.846,-4.846,-4.8461,-4.8461,-4.7585,-4.7577,-4.7873,-4.8053,-4.8234,-4.8289,-4.8612,-4.872,-4.8818,-4.8882,-4.8822,-4.871,-4.8676,-4.8679,-4.8635,-4.8555,-4.9118,-4.9118,-4.9119,-4.7876,-4.7887,-4.8154,-4.8244,-4.8414,-4.8561,-4.8866,-4.9078,-4.9167,-4.9146,-4.8933,-4.8905,-4.8724,-4.8663,-4.8637,-4.8567,-4.8421,0,0]},{"header":{"parameterUnit":"m.s-1","parameterCategory":1,"la1":30.2992,"la2":30.254,"lo1":-89.0895,"lo2":-89.0443,"dy":0.0025,"dx":0.0025,"nx":19,"ny":19,"refTime":"2026-03-28T09:00:00:Z","depth":0,"parameterNumber":3,"parameterNumberName":"V-component_of_WINDS"},"data":[0,0,0,-1.2159,-1.2154,-1.1908,-1.1907,-1.1607,-1.1604,0,0,0,0,0,0,0,0,0,0,0,-1.2248,-1.2246,-1.2159,-1.2153,-1.1908,-1.1907,-1.1607,-1.1604,0,0,0,0,0,0,0,0,0,0,0,-1.2248,-1.2247,-1.2245,-1.2153,-1.1908,-1.1907,-1.1608,-1.1786,0,0,0,0,0,0,0,0,0,0,-1.2022,-1.2122,-1.2247,-1.2245,-1.2151,-1.1909,-1.1907,-1.1794,-1.1775,-1.1726,0,-1.1694,0,-1.1645,-1.1586,-1.1585,0,0,0,-1.214,-1.2138,-1.2058,-1.2245,-1.2149,-1.1909,-1.2015,-1.1783,-1.1761,-1.1701,-1.1689,-1.1677,-1.164,-1.1584,-1.1582,-1.1359,-1.1359,0,0,-1.2153,-1.2211,-1.2073,-1.2044,-1.2091,-1.2023,-1.2007,-1.177,-1.1759,-1.1688,-1.167,-1.1635,-1.1582,-1.158,-1.136,-1.1359,0,0,0,-1.2201,-1.2221,-1.2146,-1.2057,-1.2013,-1.2016,-1.1998,-1.1769,-1.174,-1.1666,-1.1631,-1.158,-1.1577,-1.136,-1.1359,-1.1396,0,0,0,-1.2209,-1.2249,-1.2152,-1.2185,-1.2018,-1.1889,-1.2004,-1.1757,-1.1728,-1.1633,-1.158,-1.1574,-1.136,-1.136,-1.1396,-1.1403,0,0,0,-1.2258,-1.2254,-1.2225,-1.2189,-1.2086,-1.1892,-1.1849,-1.1749,-1.1707,-1.1584,-1.1574,-1.1361,-1.136,-1.1396,-1.1403,-1.1359,0,0,0,-1.2325,-1.2261,-1.2227,-1.214,-1.2088,-1.1919,-1.185,-1.1719,-1.1619,-1.1579,-1.136,-1.1359,-1.1396,-1.1403,-1.136,-1.1333,-1.1328,0,0,-1.2276,-1.2257,-1.2201,-1.2163,-1.2016,-1.1952,-1.1805,-1.1657,-1.159,-1.1438,-1.1431,-1.1396,-1.1403,-1.1359,-1.1282,-1.1279,0,0,0,-1.2204,-1.2165,-1.2113,-1.2023,-1.191,-1.181,-1.1679,-1.1622,-1.1491,-1.1526,-1.1367,-1.137,-1.1342,-1.1326,-1.1323,-1.1292,-1.1355,-1.1355,-1.1356,-1.2217,-1.2137,-1.2037,-1.1926,-1.1838,-1.17,-1.1619,-1.1518,-1.1462,-1.1425,-1.138,-1.1343,-1.1327,-1.1324,-1.1294,-1.136,-1.136,-1.136,-1.136,-1.2136,-1.2066,-1.1991,-1.1868,-1.178,-1.1673,-1.1534,-1.1497,-1.1379,-1.1372,-1.1343,-1.134,-1.1323,-1.1292,-1.1362,-1.1361,-1.1361,-1.1361,-1.1361,-1.2135,-1.2087,-1.2021,-1.1878,-1.1774,-1.166,-1.1551,-1.1474,-1.14,-1.1371,-1.1312,-1.1311,-1.1298,-1.1349,-1.1349,-1.1348,-1.1348,-1.1348,-1.1348,-1.216,-1.2084,-1.2005,-1.1876,-1.1804,-1.17,-1.1556,-1.1481,-1.1377,-1.1328,-1.1327,-1.1271,-1.1338,-1.1355,-1.1346,-1.1346,-1.1346,-1.1347,-1.1347,-1.2106,-1.2105,-1.1983,-1.1912,-1.1749,-1.1648,-1.155,-1.1402,-1.1328,-1.1275,-1.1223,-1.1286,-1.126,-1.1261,-1.1275,-1.1244,-1.1244,-1.1244,-1.1244,-1.2105,-1.2084,-1.1939,-1.1828,-1.171,-1.1608,-1.1462,-1.1346,-1.1225,-1.1172,-1.1165,-1.1176,-1.1182,-1.1151,-1.1155,-1.1167,-1.1109,-1.1109,-1.1109,-1.2066,-1.2029,-1.1925,-1.1812,-1.1677,-1.1561,-1.142,-1.1288,-1.115,-1.1102,-1.1127,-1.1133,-1.1151,-1.1161,-1.1116,-1.1124,-1.1143,0,0]}]]